Wind_Speed
60 60 60 60 61 61 61 61 61 61 60 59 58 57 57 56 56 55 55 54 55 55 55 56 57 57 57 58 58 59 59 60 61 62 62 63 63 63 63 63 63 63 63 63 63 63 62 61 60 59 58 58 57 56 55 55 54 54 54 52 50 48 45 42 40 39 39 38 36 33 31 27 24 22 20 20 20 21 22 24 26 27 27 27 26
60 61 61 61 61 62 62 62 63 63 63 63 62 60 59 58 58 57 56 56 56 57 57 58 58 59 59 59 60 61 61 62 63 63 64 64 65 65 65 65 65 64 64 63 62 62 61 60 59 58 57 56 56 55 55 54 54 53 52 50 48 46 44 41 40 39 38 36 34 32 29 25 22 21 20 20 21 22 24 25 27 27 27 27 26
61 62 62 62 62 62 62 63 64 65 65 65 65 64 62 61 60 59 58 58 58 59 59 60 60 60 60 61 62 62 62 63 64 64 65 65 65 66 65 65 65 64 63 62 61 60 59 58 57 57 56 55 55 54 54 54 53 52 50 47 46 44 42 41 40 38 36 34 32 31 27 23 22 21 20 21 22 24 25 27 27 27 27 27 25
62 62 63 62 62 62 62 63 64 65 66 67 66 65 64 64 63 62 61 60 61 62 62 62 62 62 63 63 64 64 64 64 65 65 65 65 65 65 65 64 64 63 61 60 59 58 58 57 56 56 55 55 54 54 53 53 52 50 47 45 43 41 41 40 39 36 33 32 31 29 24 22 21 20 20 21 23 25 27 27 27 27 28 27 24
62 63 63 63 63 63 64 64 65 66 67 68 68 67 66 65 65 64 63 63 64 65 65 64 64 64 65 65 65 65 65 65 65 65 64 64 64 64 63 63 62 61 60 59 58 57 57 56 56 55 54 54 53 53 52 52 51 48 45 42 40 40 40 40 37 34 32 31 30 26 22 21 19 19 20 22 24 26 27 26 27 27 27 25 21
63 63 63 64 64 65 65 65 66 66 67 68 68 69 68 66 65 65 65 66 66 67 67 66 65 65 66 66 66 66 66 65 64 63 63 62 62 62 61 61 60 59 58 58 57 56 56 55 54 53 52 53 52 52 52 50 48 45 42 39 39 40 40 38 34 32 31 30 27 23 20 19 18 19 20 23 25 26 26 26 27 26 25 23 19
66 64 63 64 65 65 66 66 66 67 67 68 69 70 69 68 67 67 67 68 68 69 68 67 66 66 66 66 66 66 65 63 62 62 61 60 60 60 59 59 58 58 58 57 56 54 53 52 51 51 52 52 52 52 50 48 46 42 38 38 39 40 38 35 32 31 30 28 24 20 19 18 18 19 21 24 25 25 25 26 26 25 24 22 19
68 67 66 66 66 66 67 67 67 67 68 69 70 71 70 70 69 69 69 70 70 69 68 67 66 66 66 65 65 64 62 61 60 59 59 59 58 58 58 58 58 58 58 56 53 50 48 49 50 51 51 52 52 51 49 46 43 39 37 38 40 38 35 32 30 30 28 24 21 18 17 18 19 20 22 24 25 25 26 26 26 25 23 22 20
71 70 70 70 69 69 68 68 68 68 68 70 71 72 72 72 71 71 71 71 71 70 69 67 66 66 65 63 62 60 59 58 58 58 58 57 57 57 58 58 59 58 56 53 49 46 47 49 51 51 51 51 50 49 47 44 40 36 37 39 38 35 32 30 29 28 24 21 19 17 17 18 19 21 23 24 25 25 25 25 26 25 22 22 22
73 73 72 72 72 71 71 70 69 69 70 70 72 73 73 73 73 73 72 72 71 70 68 67 65 64 63 61 60 59 58 57 57 57 57 57 58 58 59 59 58 56 53 49 46 46 48 49 50 51 50 49 48 47 45 41 37 36 38 38 35 32 30 29 28 24 21 19 17 16 18 19 20 21 23 25 26 25 25 25 26 25 23 21 22
75 74 74 74 74 73 72 71 70 70 71 72 72 73 73 74 74 73 72 71 70 69 67 66 64 63 61 60 59 58 58 58 57 58 58 58 59 60 60 58 54 51 48 46 46 47 49 50 50 50 49 48 46 45 42 38 36 37 38 36 32 30 28 27 25 21 20 18 16 17 19 20 21 22 23 25 26 26 26 26 26 26 24 22 21
76 76 76 76 75 74 73 72 71 71 71 72 72 73 73 73 73 72 71 70 68 67 66 64 63 62 60 59 59 59 59 59 59 59 59 59 60 60 57 53 48 47 46 47 49 50 50 50 50 49 48 46 44 42 39 37 36 38 36 33 30 29 28 26 22 19 18 17 16 18 20 21 22 24 24 26 27 28 28 28 28 27 25 23 20
76 76 76 76 75 75 74 73 72 72 72 72 72 72 72 71 71 70 69 68 67 65 64 63 62 61 60 60 60 59 59 59 59 59 59 59 59 56 52 47 45 46 48 50 51 51 50 49 49 47 46 44 42 40 37 37 37 36 33 30 28 28 27 23 19 18 17 16 17 19 21 22 23 25 26 27 29 29 29 29 29 29 27 24 20
75 76 76 76 75 75 74 73 73 72 72 72 71 71 71 70 70 69 68 67 66 65 63 63 62 61 61 61 60 60 59 58 57 57 57 56 54 50 46 43 44 48 51 52 52 51 50 49 47 46 44 42 40 38 37 37 37 34 30 28 28 27 25 21 18 17 17 17 18 20 23 24 25 26 27 28 30 30 29 29 30 30 28 25 21
74 74 74 74 74 74 73 73 72 72 71 71 71 70 70 69 69 68 67 66 65 64 63 63 62 62 62 61 61 60 59 58 56 54 53 51 48 44 43 44 48 51 53 53 52 50 49 48 46 44 42 39 37 37 37 38 35 31 28 27 26 26 23 19 18 18 17 18 20 22 24 25 27 28 28 29 31 31 30 30 31 30 28 26 21
73 73 73 72 72 72 72 71 71 70 70 70 70 69 69 68 68 67 66 66 65 64 63 63 63 62 62 62 61 60 59 56 52 50 49 46 42 42 45 49 53 53 53 52 51 50 48 47 44 42 39 37 36 37 38 37 32 28 26 25 25 24 21 19 18 18 18 19 21 23 25 27 28 29 29 30 31 31 31 32 31 29 27 26 22
72 72 72 71 71 71 70 70 70 70 69 69 69 69 68 68 67 67 66 65 64 64 64 63 63 63 62 63 61 58 55 50 49 48 44 41 42 46 51 54 55 54 53 51 50 48 47 45 42 39 37 35 35 37 37 33 29 26 24 24 25 24 21 21 20 19 19 20 21 24 26 28 29 30 30 31 32 32 33 33 30 27 26 25 21
73 72 71 71 71 71 70 70 70 69 69 69 69 69 68 67 67 66 65 65 65 64 64 64 64 64 63 62 58 54 52 48 49 48 42 42 47 53 55 56 56 54 52 50 48 46 45 43 40 36 35 34 36 37 35 30 26 24 23 24 25 24 23 21 22 21 21 21 23 25 28 29 30 31 31 32 32 33 35 32 28 26 26 24 20
74 73 72 72 72 71 71 70 70 69 69 69 69 68 68 67 67 66 66 66 65 65 65 64 64 64 62 61 56 53 53 50 48 46 45 49 53 55 56 55 54 52 50 47 46 45 43 41 38 35 34 35 36 35 30 26 23 22 22 24 25 25 24 22 23 23 23 23 24 27 29 31 32 32 32 33 33 35 36 30 27 27 26 23 19
75 75 74 73 73 72 72 71 70 70 70 70 70 69 69 68 68 68 67 66 66 66 65 65 65 64 62 61 58 55 52 49 48 48 51 54 55 54 53 52 51 49 47 45 44 43 41 38 36 36 35 35 34 30 25 22 21 22 24 25 26 26 26 24 24 24 25 25 26 29 31 33 33 32 33 34 35 37 35 29 27 27 25 22 19
77 76 75 75 75 74 73 73 72 72 72 72 71 71 70 70 69 69 68 67 66 66 66 65 65 64 62 59 57 54 50 50 52 53 54 54 52 50 49 48 46 45 43 43 42 41 38 37 37 37 36 35 31 25 21 21 22 23 26 27 28 28 27 26 25 25 25 26 28 31 33 33 33 33 34 36 37 37 33 28 28 26 24 21 18
76 76 76 76 76 75 75 74 73 73 73 72 72 72 71 70 69 69 68 67 66 66 65 63 63 62 58 53 51 51 51 53 54 54 52 51 49 47 45 44 43 42 41 41 40 38 37 37 38 38 36 32 26 22 20 21 23 25 27 28 28 28 27 25 25 25 25 27 31 33 34 33 33 34 36 37 39 36 30 28 28 26 23 20 17
72 72 73 73 74 74 74 73 73 74 74 73 73 72 71 70 70 68 67 66 64 62 61 59 55 52 49 48 50 52 53 53 52 51 49 47 46 44 42 41 40 40 40 39 38 37 37 37 38 37 34 28 24 22 21 21 24 26 28 28 27 27 26 24 24 25 26 29 33 35 35 34 34 36 37 38 38 33 28 28 27 25 22 18 16
68 68 69 69 69 70 70 70 71 73 72 72 72 71 71 70 68 66 64 62 59 56 56 51 43 41 46 50 52 52 51 50 48 47 45 44 43 41 40 39 38 38 38 38 36 36 37 37 37 34 30 25 23 22 22 22 25 26 25 24 25 25 24 23 25 27 29 32 35 35 35 35 37 38 39 38 35 30 28 28 27 24 20 17 15
65 65 66 66 66 66 67 67 68 69 69 69 68 67 66 65 63 60 58 55 52 50 46 38 36 42 48 50 49 48 48 46 45 44 43 42 41 40 39 38 37 37 37 36 35 35 35 35 33 30 27 24 24 23 22 23 25 24 21 21 22 23 23 24 26 28 30 33 34 34 34 36 38 40 39 36 31 29 28 27 26 22 18 15 14
63 64 64 63 63 64 65 64 65 66 65 64 63 61 59 57 56 53 52 49 45 42 37 35 41 46 46 45 45 45 44 43 42 42 41 41 39 38 37 37 37 37 35 34 32 32 32 31 29 27 25 24 24 24 23 24 24 21 19 20 21 23 25 25 27 28 30 31 31 32 34 35 38 39 37 33 30 29 28 26 24 19 15 14 13
62 61 60 59 58 59 59 58 58 60 60 58 56 54 52 50 48 47 46 43 39 35 31 37 44 44 43 43 43 43 42 42 42 41 40 39 38 38 37 36 36 35 33 30 29 29 29 28 26 25 25 24 24 24 24 23 22 20 20 21 23 24 26 27 27 27 29 30 30 30 31 33 36 37 36 33 31 30 27 23 20 16 14 12 11
59 57 55 52 48 46 45 43 44 47 49 50 47 45 44 44 43 43 42 38 34 29 28 36 43 42 42 42 41 42 41 41 41 40 39 39 38 37 36 35 35 32 29 27 28 27 26 25 25 24 24 24 24 24 24 23 21 20 22 23 24 26 26 25 24 24 24 26 26 27 29 32 34 33 32 30 29 27 23 19 16 14 12 10 9
55 53 49 40 35 37 37 33 31 32 35 37 36 36 38 39 39 39 37 34 29 27 31 38 41 40 40 40 41 41 41 42 41 40 39 38 37 37 36 35 33 30 27 27 27 25 24 24 24 23 23 23 24 25 25 23 21 21 22 24 25 24 22 20 19 18 19 21 24 27 30 31 30 27 25 24 22 19 17 15 14 12 11 9 8
50 47 44 36 27 29 32 30 28 28 28 28 30 32 33 35 36 35 32 30 28 29 33 37 38 39 40 40 41 42 42 42 40 39 38 38 37 37 36 34 32 30 28 27 25 24 24 24 24 23 23 24 25 26 25 23 21 21 23 24 23 19 17 15 14 15 17 21 25 27 27 26 24 21 19 17 15 13 13 13 12 11 10 8 9
46 43 44 43 33 28 30 30 29 27 24 25 30 32 31 30 29 26 24 25 28 31 34 37 40 41 41 42 43 43 43 41 40 39 39 38 38 37 36 34 31 30 28 27 25 25 24 24 23 23 23 25 26 26 25 23 21 22 23 22 18 14 13 12 12 14 18 22 26 24 20 20 19 16 13 11 9 10 10 11 11 11 10 9 9
44 40 40 43 41 38 36 34 31 28 25 28 31 29 26 21 18 18 22 27 31 34 37 40 41 42 42 42 43 42 42 41 40 40 39 39 38 37 36 33 31 30 29 27 26 25 25 25 24 24 25 26 26 26 24 22 21 23 22 18 14 11 10 10 12 16 20 25 24 18 15 14 13 12 10 10 9 8 8 9 10 11 11 10 10
40 37 33 35 39 41 38 33 31 28 27 29 26 22 18 15 17 23 29 34 36 38 39 40 40 41 41 42 42 42 41 41 40 40 40 39 38 37 35 33 31 29 28 27 26 25 24 25 25 26 25 25 25 24 23 22 22 23 19 15 11 9 8 10 13 15 19 21 15 9 12 12 10 11 12 12 11 11 11 12 13 12 12 12 12
37 36 30 27 29 35 36 31 28 28 28 26 22 18 18 22 29 35 39 41 41 41 41 40 41 42 41 41 41 41 40 40 40 40 40 39 38 37 35 33 30 28 27 26 25 24 24 25 25 25 24 24 23 22 22 21 22 21 17 13 9 7 8 10 12 13 12 11 6 7 10 10 9 10 10 12 14 14 13 15 15 14 13 13 13
36 35 31 26 26 30 33 29 26 29 30 27 24 25 29 35 40 44 46 46 45 43 43 43 43 43 42 41 40 40 39 39 39 39 39 39 37 36 34 32 29 27 25 24 23 23 24 24 23 22 22 22 21 21 21 21 21 19 15 12 8 7 9 9 10 11 9 11 10 8 8 8 8 9 10 11 14 15 14 14 15 15 14 13 13
39 38 33 30 28 26 26 27 28 32 33 31 31 34 38 42 46 47 47 48 46 43 42 43 43 43 41 40 39 39 38 38 38 39 38 38 37 35 34 31 28 25 23 22 22 22 22 22 21 21 20 20 21 21 20 20 20 17 14 10 9 8 9 8 6 9 14 13 11 9 8 10 10 9 10 10 12 15 13 13 14 15 14 13 12
45 44 41 37 33 28 25 28 32 36 37 36 36 38 41 44 45 46 46 46 43 40 40 42 42 41 40 39 38 38 37 37 38 38 37 37 36 34 32 29 25 23 22 21 21 22 21 21 21 21 20 20 21 21 20 20 18 15 13 11 11 10 9 8 6 11 17 13 11 13 12 14 15 13 12 11 13 15 13 14 15 15 15 16 15
47 49 49 47 41 35 33 34 37 39 41 40 39 39 42 43 41 41 40 38 37 37 39 40 40 40 40 39 38 37 36 36 36 37 36 35 34 32 29 26 24 21 20 21 21 22 22 22 22 21 21 21 21 21 20 19 16 14 13 12 13 11 10 9 7 12 16 11 12 17 16 16 16 15 13 12 13 15 14 15 17 17 17 18 18
48 50 51 51 46 41 42 43 44 45 45 45 43 42 43 42 39 39 34 31 36 38 38 40 41 39 39 39 37 36 35 35 36 36 35 34 32 30 28 25 22 21 21 21 21 21 21 21 22 22 22 21 21 20 19 18 15 13 13 13 14 12 11 10 9 12 14 12 15 19 18 17 16 14 13 12 12 14 15 15 18 19 19 20 21
49 51 51 51 49 48 48 49 49 49 49 49 47 43 41 40 40 38 34 33 38 40 39 42 42 40 39 38 36 35 35 35 35 35 34 33 31 29 26 24 22 22 21 21 21 21 21 21 22 22 22 21 20 19 17 16 14 13 13 14 14 13 13 12 11 12 13 13 14 15 16 19 18 14 13 15 15 16 17 18 21 21 21 23 25
49 50 50 50 50 52 52 51 50 50 50 48 46 43 42 41 38 35 33 33 36 40 42 43 42 41 39 38 36 35 34 34 34 34 33 31 30 28 26 24 24 23 22 22 22 21 21 22 22 22 22 20 18 17 16 15 14 12 13 14 15 15 15 14 13 12 12 12 12 11 12 17 19 18 17 19 20 21 22 23 24 25 26 26 27
47 47 48 49 49 50 51 49 48 47 48 48 46 46 44 38 33 32 32 33 38 43 44 44 44 41 39 37 36 35 34 34 33 33 32 30 29 28 27 25 24 24 23 23 22 21 22 22 22 22 21 19 17 16 15 15 14 13 13 15 15 16 15 14 13 13 12 12 11 9 9 13 17 20 22 22 23 24 26 27 29 29 31 31 30
47 47 46 48 49 49 48 46 45 45 46 45 42 41 39 34 31 29 31 35 39 43 44 44 44 40 38 37 36 34 33 33 32 32 31 30 29 29 28 26 25 24 24 23 22 22 23 23 22 21 19 18 17 16 16 15 15 14 14 16 17 16 16 15 14 12 11 12 11 10 11 13 14 16 20 22 23 25 26 28 30 29 28 29 29
47 47 46 47 48 48 45 43 43 44 44 43 40 36 34 33 30 29 36 42 41 42 43 43 41 38 37 36 35 34 32 31 31 30 31 30 30 29 29 27 26 25 24 23 22 23 24 24 22 20 18 17 17 17 16 17 17 15 14 17 17 17 17 18 16 13 12 14 12 12 14 15 15 16 18 20 23 25 25 26 27 27 27 26 27
47 47 47 47 47 46 43 43 43 43 44 43 40 36 34 34 32 35 40 41 38 38 39 39 39 37 35 35 35 33 31 30 29 29 30 30 29 29 29 28 27 25 23 23 23 24 25 24 22 19 18 17 17 17 17 18 19 17 16 17 18 17 17 18 18 16 15 15 13 14 16 16 17 19 19 21 23 25 25 26 26 28 29 30 30
45 45 45 45 45 43 41 41 42 41 42 41 38 36 36 36 35 36 36 35 36 38 38 38 38 36 35 35 33 32 30 29 28 28 28 28 28 29 29 28 27 25 24 23 23 25 25 23 21 19 18 18 18 18 18 18 19 20 19 19 19 18 18 19 19 19 18 17 15 16 17 17 18 19 20 22 24 26 30 30 30 32 34 35 35
41 42 42 42 40 37 37 37 37 37 38 37 37 37 37 37 35 34 34 36 40 42 41 39 37 35 34 33 32 31 30 28 27 27 27 27 27 28 28 27 26 25 24 24 25 25 24 23 20 19 18 18 19 19 19 19 20 20 21 21 21 21 22 22 22 21 21 20 19 19 19 20 21 22 23 23 24 26 29 31 33 35 38 39 39
38 38 36 34 31 28 30 31 32 34 35 34 34 35 38 39 36 34 34 35 39 43 43 41 38 34 32 32 32 31 30 29 28 27 27 26 26 26 26 26 26 26 26 26 26 25 24 22 20 19 19 19 20 20 20 20 19 19 20 21 22 22 23 25 25 25 25 24 24 22 21 21 22 24 25 25 25 25 26 27 29 31 34 37 38
35 31 26 23 22 21 23 27 32 34 33 31 30 32 34 34 30 31 34 38 40 43 43 40 36 33 31 32 31 31 31 30 29 29 29 28 27 27 27 28 28 28 27 27 27 25 23 21 20 20 20 20 20 21 20 19 18 18 17 18 21 22 24 26 27 27 27 27 26 24 23 23 23 24 25 26 27 27 26 26 26 27 28 30 31
26 19 17 17 18 20 24 31 38 36 31 30 28 25 26 25 24 26 32 36 39 41 40 36 33 31 31 31 31 32 31 31 31 31 31 31 31 31 30 31 30 29 29 28 26 24 22 21 20 20 21 21 21 21 20 18 17 17 17 18 20 22 23 26 27 27 27 28 29 27 24 23 23 24 25 25 26 27 27 27 27 27 27 28 29
20 18 23 25 28 31 35 38 42 39 32 28 25 23 24 24 24 28 34 39 42 43 40 35 32 31 31 30 31 31 31 30 31 32 33 34 34 33 33 32 31 30 29 28 26 24 22 21 21 21 21 21 21 21 19 18 18 18 18 19 20 21 23 26 27 28 28 30 31 29 26 25 24 24 24 25 25 26 27 28 28 28 28 29 29
Wind_Direction
269 270 271 272 272 273 274 276 277 278 279 280 280 280 281 281 282 283 284 285 286 286 287 287 287 288 289 290 290 291 291 292 292 293 294 295 296 296 297 298 299 300 301 303 304 306 307 308 308 309 310 311 312 312 312 312 312 312 312 312 312 311 310 309 307 304 302 300 297 295 295 293 289 286 282 283 284 286 291 295 298 302 305 304 304
267 268 270 271 272 273 274 275 276 277 278 279 280 280 281 281 282 283 284 285 286 286 286 287 287 289 289 290 290 291 291 292 292 293 294 295 295 296 297 298 299 300 302 303 305 306 307 308 308 309 310 311 312 312 312 312 312 312 312 312 311 310 309 308 306 304 301 298 294 294 293 289 286 283 282 284 286 290 294 298 302 304 305 303 303
267 266 268 269 271 272 274 275 276 277 278 278 279 280 281 281 282 283 285 286 287 287 287 288 288 290 290 291 291 292 292 293 294 294 294 295 295 296 297 298 299 300 302 304 305 306 307 308 309 309 310 311 311 312 312 312 312 312 312 311 310 309 308 307 306 303 300 296 293 293 291 287 285 283 284 287 290 293 298 303 305 306 307 304 301
268 267 267 268 270 272 273 274 275 276 277 278 279 280 280 281 282 284 285 287 287 287 288 288 289 290 291 292 293 293 294 295 295 296 296 296 296 297 298 299 300 301 303 304 305 306 307 308 308 309 310 311 311 311 311 311 311 311 311 310 309 308 307 307 305 301 297 293 292 292 289 286 286 286 288 290 292 296 302 307 308 310 309 305 298
270 268 267 268 270 272 273 274 275 275 276 277 278 280 280 281 283 284 285 287 287 288 288 289 290 291 292 293 294 295 295 296 297 297 297 297 297 298 299 300 301 302 304 304 306 306 307 307 308 309 310 311 311 311 311 311 310 310 310 309 308 308 307 306 303 299 295 292 292 290 287 288 290 291 293 292 295 300 306 308 311 313 312 307 298
270 270 269 270 271 272 273 274 275 276 276 277 278 279 280 282 283 284 285 287 288 289 289 289 290 291 292 293 295 296 296 297 297 298 299 299 299 300 301 302 303 303 304 305 306 306 306 307 308 309 310 311 311 310 310 310 310 309 309 308 308 308 307 304 300 296 293 292 291 288 287 290 293 295 295 296 301 305 306 309 313 314 312 309 300
269 269 270 271 272 273 273 274 275 276 276 276 277 278 279 281 284 284 285 287 289 290 290 290 291 292 293 294 295 296 296 297 298 299 300 301 301 302 302 303 303 303 304 305 306 306 307 307 308 310 311 311 310 310 309 309 309 308 307 307 308 307 306 302 298 294 292 291 289 287 289 293 296 298 298 301 306 306 305 309 314 313 309 309 302
270 269 270 271 273 273 273 274 274 275 275 275 276 277 279 281 284 285 285 286 289 290 290 291 292 293 293 294 295 296 296 297 299 300 301 301 302 303 303 303 303 303 304 305 306 307 308 309 310 311 312 311 310 309 308 308 307 307 307 308 308 307 304 300 296 293 292 289 287 287 290 294 297 299 301 304 307 305 304 308 314 312 306 306 302
270 270 270 272 273 274 274 273 273 274 274 274 275 277 278 281 283 284 284 286 288 290 290 291 292 293 294 295 295 296 297 298 299 300 301 302 302 303 303 303 303 303 304 305 306 307 309 310 311 312 312 311 309 308 307 307 306 306 307 308 307 305 301 298 295 292 290 286 286 289 290 293 297 300 303 306 307 306 305 308 313 311 304 303 302
271 271 271 273 273 274 274 274 274 274 274 274 275 277 278 280 281 283 284 286 288 289 290 291 292 293 294 295 296 296 297 298 300 301 302 302 302 302 302 302 302 303 304 304 306 309 311 311 311 312 311 310 308 307 306 305 305 306 308 308 306 302 298 296 294 290 286 284 285 288 289 292 297 299 303 307 309 307 306 308 312 311 304 301 300
270 271 272 273 273 273 274 275 275 275 275 275 276 277 278 280 281 283 284 286 288 289 290 291 292 293 294 295 295 297 298 299 301 301 302 302 302 302 301 301 302 302 303 304 307 311 312 312 312 311 310 309 307 306 305 304 305 307 308 307 302 298 296 296 291 287 285 283 285 288 290 291 294 297 302 307 309 308 307 308 310 311 305 299 297
269 270 271 272 273 273 274 275 275 276 276 276 277 278 279 281 282 284 285 287 288 289 290 290 291 292 293 295 296 297 299 300 301 301 301 301 301 301 301 301 301 302 303 305 309 312 313 312 312 310 309 307 306 305 303 303 306 308 307 303 298 295 296 294 288 285 285 285 288 289 289 289 291 294 299 304 306 306 307 307 308 310 306 299 294
269 269 270 271 272 272 273 274 275 276 276 277 277 278 280 281 282 284 285 286 287 288 289 290 291 292 294 295 297 299 300 301 301 301 300 300 300 300 301 301 301 302 305 307 310 311 312 312 311 309 307 306 304 303 302 304 308 308 304 299 294 294 296 291 284 284 284 286 290 290 289 290 292 293 295 300 304 304 304 305 306 308 306 299 292
269 270 270 271 271 272 272 273 274 275 276 277 278 278 279 281 282 283 284 285 286 287 289 290 291 293 294 296 298 299 301 301 302 301 299 299 299 300 301 300 302 305 307 309 310 310 310 311 310 308 306 304 303 301 302 306 308 306 300 295 292 296 295 286 282 284 283 286 289 290 289 290 292 293 293 296 300 302 302 303 305 307 304 299 291
269 270 270 270 271 271 272 273 274 275 276 277 277 278 279 280 281 282 283 284 286 287 288 290 291 293 295 296 298 299 300 301 301 300 298 298 298 299 300 302 304 306 307 308 309 309 309 310 309 306 304 303 301 301 304 307 307 302 296 292 294 300 293 282 282 284 283 286 289 290 289 289 292 293 293 295 299 301 302 304 305 305 302 299 291
269 269 269 270 270 271 272 273 273 274 275 276 277 278 279 280 281 282 283 284 285 287 288 290 291 293 295 296 297 298 300 300 299 299 297 297 297 298 300 304 306 306 307 307 307 307 307 308 307 304 303 302 301 302 306 307 304 298 292 290 297 303 293 281 283 284 284 285 288 291 290 290 291 291 293 295 298 300 303 305 304 302 300 298 289
267 268 268 269 270 271 272 272 273 274 275 276 277 277 278 279 280 282 283 284 285 287 288 290 292 293 294 295 297 298 299 298 298 298 295 294 296 300 302 304 305 305 306 306 305 305 305 306 305 303 302 301 301 304 307 305 300 295 290 291 299 305 297 283 281 285 286 285 286 289 289 290 290 290 293 296 299 301 305 306 301 299 298 296 286
266 267 268 269 270 270 271 272 273 274 275 276 277 278 278 279 281 282 283 284 286 287 289 291 292 293 294 295 296 296 296 295 296 295 292 294 298 301 302 302 303 303 304 304 303 303 303 303 302 301 301 300 302 305 305 301 297 293 291 295 300 305 302 288 280 283 286 285 286 287 287 287 288 290 292 297 300 302 305 304 297 296 296 293 282
266 267 268 268 269 270 271 272 273 274 275 276 277 278 279 280 281 281 283 284 286 288 289 291 292 292 293 294 294 293 293 292 292 291 289 293 297 299 299 299 301 301 302 302 301 301 300 300 300 300 300 300 303 304 302 297 294 294 296 299 300 302 304 294 282 281 283 284 285 285 286 286 288 290 292 296 299 302 304 299 293 295 294 288 277
265 266 267 268 269 270 271 272 273 274 275 276 277 278 278 279 280 282 283 285 287 288 289 290 291 292 293 293 293 292 291 289 288 289 290 292 295 295 296 297 299 299 300 299 299 299 298 298 298 299 299 300 303 303 297 292 292 296 300 301 300 300 302 297 285 281 282 284 284 284 285 286 288 290 292 295 297 301 301 294 291 294 290 283 274
265 266 266 267 268 269 270 271 272 273 274 275 276 277 278 279 280 282 284 285 287 288 289 290 291 292 292 291 291 289 287 286 287 289 292 293 294 295 296 297 297 297 297 297 297 296 296 296 297 298 299 302 303 300 293 291 294 299 301 300 298 298 299 295 286 282 283 284 283 282 283 286 289 290 293 295 297 300 296 289 291 292 287 279 271
266 266 267 267 268 269 269 271 272 272 273 274 275 276 278 279 280 282 284 285 286 288 289 291 292 293 292 289 287 286 286 287 289 290 292 293 294 295 295 295 295 295 295 295 295 294 294 295 296 298 300 302 301 297 292 293 298 302 301 297 296 296 296 291 284 283 284 283 281 282 286 288 290 291 293 294 297 298 290 286 291 289 283 275 269
267 268 268 268 269 270 271 271 272 273 273 274 275 277 278 279 281 282 283 284 286 288 289 290 291 290 288 285 285 286 288 289 289 290 292 292 293 293 293 293 293 294 294 294 293 293 294 295 297 299 300 301 299 297 295 296 300 302 298 295 295 294 293 289 286 286 285 282 281 283 288 290 291 291 292 293 296 293 284 284 289 286 278 269 266
269 270 270 271 272 272 273 273 274 274 274 275 276 277 279 280 281 282 283 285 287 287 289 290 286 281 281 285 287 288 289 289 290 291 291 291 292 291 291 292 292 293 293 292 292 293 294 295 297 299 300 300 300 301 299 299 301 300 295 292 293 292 288 283 281 281 278 278 280 285 288 290 290 290 291 293 293 286 279 283 287 281 273 265 261
270 271 272 274 274 275 275 275 275 276 276 276 277 278 280 281 282 283 284 285 287 288 291 289 278 278 284 287 288 289 290 290 291 292 291 291 290 290 290 291 291 292 291 291 292 294 294 295 297 298 298 300 303 303 302 301 301 298 292 291 293 291 286 280 276 275 275 277 282 287 289 289 289 289 290 290 287 279 276 282 283 276 267 261 257
270 272 274 276 278 279 279 278 277 276 277 278 278 279 280 281 282 283 284 285 287 289 290 282 278 284 288 289 289 290 291 291 292 292 291 291 290 289 289 289 290 290 290 291 292 292 293 296 297 296 297 300 303 302 301 300 298 293 289 291 294 293 291 287 283 281 281 283 287 289 290 289 287 287 288 285 279 275 275 279 278 269 260 259 255
269 271 274 278 281 283 282 280 278 277 277 278 279 280 281 281 281 282 282 283 286 289 287 279 281 287 288 289 290 291 292 292 292 292 291 290 288 288 288 288 289 289 289 290 290 291 294 296 295 295 297 300 300 299 298 297 295 289 287 291 295 296 295 292 289 287 288 289 290 291 291 290 288 288 287 282 275 272 274 276 270 260 256 256 251
269 271 275 280 285 286 285 284 283 281 278 277 278 280 279 278 278 279 279 281 284 285 277 275 281 286 288 290 290 291 292 292 291 290 289 287 287 287 287 287 287 287 287 288 288 291 294 295 294 295 296 297 296 295 296 295 290 285 287 292 296 299 298 295 292 292 292 293 294 295 294 292 291 290 287 280 273 270 270 266 258 253 251 248 239
270 271 273 278 284 286 286 288 289 287 283 280 280 282 280 277 276 276 278 281 281 275 270 275 283 288 291 291 291 292 291 290 289 288 287 286 285 285 285 285 284 283 283 285 288 291 293 293 293 294 294 293 293 294 294 292 287 287 291 296 300 300 297 293 292 295 297 300 301 300 299 298 295 291 284 277 272 269 262 254 250 248 242 234 228
267 267 263 259 265 276 279 281 282 287 290 287 285 285 280 275 274 276 279 281 279 274 274 280 286 290 293 293 292 292 290 289 288 286 285 284 284 283 283 283 282 280 281 283 287 290 290 291 292 290 289 290 293 294 292 289 288 293 300 302 302 298 292 291 295 301 307 309 307 304 303 304 299 289 280 275 270 264 254 248 246 241 233 227 226
262 262 259 254 249 253 266 274 276 280 283 282 282 280 277 275 275 277 278 280 281 281 282 285 289 292 293 293 292 291 289 288 286 285 284 283 283 282 282 281 279 278 279 282 286 287 287 288 288 287 287 291 295 294 291 289 291 300 307 305 298 292 288 292 301 312 314 310 309 308 305 303 302 293 278 268 264 265 260 252 243 236 234 232 230
256 257 258 255 246 243 257 271 273 272 269 270 274 272 270 270 273 278 281 284 286 286 287 289 290 291 292 292 291 289 288 287 285 284 283 282 281 281 280 279 277 277 279 281 284 285 286 286 285 286 288 293 295 294 291 290 294 305 309 301 292 287 287 297 308 317 317 313 316 314 295 290 300 297 276 260 257 257 249 242 240 240 241 239 234
249 247 249 251 247 243 251 265 270 269 265 262 261 258 254 261 274 284 289 292 292 292 292 292 291 292 292 291 290 288 287 285 284 282 281 280 280 280 279 277 276 277 278 280 282 284 283 284 286 287 289 292 293 292 292 291 296 306 306 293 285 281 287 304 313 325 324 319 325 308 277 278 289 291 282 272 264 252 238 238 241 243 244 242 239
238 234 236 242 244 239 241 254 264 263 259 254 247 245 253 271 285 292 296 297 296 295 295 294 294 293 292 290 288 286 285 284 282 280 279 279 279 279 278 276 276 277 278 279 281 281 281 285 287 287 289 289 289 291 293 294 299 305 300 286 278 271 285 304 317 332 319 291 275 256 263 270 278 286 285 282 282 275 262 251 246 247 251 253 249
233 227 223 225 232 233 234 243 256 258 255 250 248 258 273 284 293 297 298 298 295 292 292 293 294 294 291 288 286 285 284 282 280 278 278 278 278 277 276 276 276 276 276 277 278 279 282 285 286 286 286 284 285 291 294 295 300 301 292 282 266 259 280 302 326 327 281 243 249 262 263 267 274 279 276 279 283 284 278 262 253 254 258 262 258
235 231 224 222 226 227 227 233 246 255 254 251 259 272 282 289 295 296 296 296 293 289 289 291 293 292 290 287 286 285 283 280 278 277 277 277 277 276 276 276 276 275 274 274 276 280 283 285 286 286 285 282 285 290 293 294 298 296 285 271 253 257 280 299 325 298 263 246 251 253 249 254 255 257 262 269 274 276 278 270 261 261 262 266 265
237 238 235 233 230 229 232 233 239 250 250 251 266 277 282 289 294 294 295 294 290 288 289 292 293 291 288 287 286 283 281 278 277 276 276 276 276 276 276 276 274 272 271 273 276 280 282 284 287 288 285 283 284 288 290 293 295 289 276 257 248 260 278 293 309 273 260 254 253 252 249 244 237 234 235 245 261 267 273 274 267 264 267 270 270
237 241 241 240 238 242 244 236 235 244 248 253 267 275 278 287 294 299 300 294 289 289 292 294 293 291 287 285 282 279 278 276 275 274 274 274 275 276 275 274 272 270 270 272 277 281 282 285 287 287 284 283 283 285 287 290 291 281 266 250 249 260 274 292 298 270 267 271 260 256 252 245 239 232 227 234 253 262 269 274 269 268 274 274 272
236 241 242 241 241 245 244 239 237 241 248 256 267 272 274 282 293 301 300 290 288 290 292 294 292 289 286 282 278 277 275 274 273 272 272 273 274 274 273 272 270 269 270 273 278 282 284 286 286 285 284 283 283 283 285 287 284 272 258 249 250 260 273 287 285 270 276 278 259 251 247 244 241 231 227 231 243 256 262 266 267 270 274 273 273
238 241 242 240 240 242 243 244 245 248 254 263 270 271 271 279 289 295 290 281 282 285 290 293 292 288 284 279 277 275 274 272 272 272 271 272 272 272 271 269 268 269 270 274 279 283 286 287 287 286 285 283 281 280 283 284 276 264 254 249 253 262 272 279 274 267 273 272 264 258 249 243 236 226 228 230 232 241 246 251 257 263 267 268 269
239 242 244 241 240 243 246 249 252 256 259 264 268 268 271 279 283 284 280 273 272 279 287 291 291 287 282 279 277 274 273 272 271 271 271 272 271 270 269 267 268 269 270 274 280 285 288 288 287 287 285 280 277 279 281 278 269 257 250 249 255 264 272 276 274 270 270 268 269 270 255 243 233 224 224 228 230 234 237 242 248 253 259 262 266
239 242 245 245 244 246 249 250 253 256 259 262 265 267 272 276 274 273 270 264 268 279 286 288 288 285 281 280 277 274 272 271 271 271 271 270 270 268 267 266 266 267 269 274 280 285 288 288 287 286 282 277 275 278 276 270 261 251 246 249 255 263 268 273 274 273 274 271 268 268 258 247 238 229 228 230 234 236 237 241 247 253 258 259 262
237 240 242 245 246 248 249 250 254 257 260 262 265 269 271 269 266 268 265 263 273 281 283 285 285 284 282 280 277 274 273 271 271 270 269 269 267 265 264 263 263 265 270 274 278 284 286 286 285 284 279 274 275 275 269 262 254 247 246 251 257 264 269 276 277 273 272 270 265 261 257 255 249 239 234 234 237 240 241 244 247 252 256 257 258
236 238 240 242 245 248 249 251 253 254 256 259 263 267 267 263 256 252 259 266 274 278 281 283 284 283 283 280 276 274 272 270 270 268 268 266 264 262 261 260 261 265 271 276 279 283 284 283 282 279 275 274 275 273 265 256 250 246 247 252 257 264 271 276 276 271 268 268 265 260 257 256 256 250 242 237 239 242 243 246 247 248 251 256 260
235 237 239 241 244 247 250 252 253 253 254 258 264 265 263 262 252 246 257 267 272 275 278 282 285 285 283 279 276 274 271 269 268 267 266 263 261 260 259 259 260 266 273 277 280 282 282 279 276 274 273 273 273 271 264 256 249 243 244 250 256 262 267 267 268 267 265 269 272 266 260 258 257 256 252 248 250 253 255 257 259 259 261 265 269
236 237 239 241 244 247 250 252 254 255 258 260 262 261 259 260 255 250 256 263 267 270 274 279 284 284 281 279 276 273 270 268 266 265 262 259 259 258 259 259 261 268 274 276 279 281 279 275 272 272 271 271 272 270 265 260 252 245 242 247 253 258 260 262 266 265 263 268 273 268 265 265 264 262 260 259 261 264 265 265 263 261 261 263 264
237 237 238 240 244 248 251 254 255 256 258 259 258 258 258 258 255 252 255 257 260 264 269 276 281 281 279 277 274 271 269 266 264 263 259 257 258 259 260 262 265 271 274 276 279 279 275 271 269 269 269 270 270 268 265 261 256 250 246 247 250 253 256 260 261 260 262 268 272 269 268 267 266 264 264 264 264 263 263 261 258 256 255 256 258
236 236 237 241 246 250 254 260 262 257 257 257 256 256 256 256 253 249 250 252 256 264 271 276 278 278 277 276 274 271 268 265 263 261 260 259 259 261 263 265 268 272 274 277 278 275 271 267 266 267 268 269 268 266 264 260 257 253 250 250 251 253 256 257 257 257 262 270 275 276 273 269 265 264 263 264 264 263 262 262 261 259 259 259 261
230 233 236 239 243 245 248 254 255 252 252 253 253 253 254 257 256 251 252 256 261 269 274 274 274 274 276 276 274 271 268 265 262 261 261 261 261 262 264 267 270 274 276 277 275 270 266 263 263 265 266 267 266 264 263 261 258 255 252 251 252 254 256 257 257 258 262 270 277 279 277 272 268 266 264 264 264 264 264 266 267 267 267 267 267
221 226 232 222 219 226 226 231 239 240 239 246 249 249 250 254 255 251 254 258 263 270 272 270 271 274 276 276 274 271 269 266 264 262 262 262 264 265 266 269 272 275 276 274 270 265 261 261 262 263 265 265 264 263 262 260 256 252 249 250 253 255 255 255 257 259 263 270 277 281 279 276 271 268 267 267 267 267 267 267 269 271 272 273 273
197 205 221 209 200 209 213 219 232 233 230 237 242 238 236 240 246 250 254 258 263 268 269 267 269 274 276 276 275 272 269 268 266 264 264 265 266 267 269 270 272 273 272 268 263 260 258 259 261 263 264 263 262 262 260 256 253 250 249 250 251 252 253 255 257 260 264 270 276 280 281 279 275 272 270 270 270 271 270 270 270 272 274 277 278
Height
10898 10898 10898 10897 10897 10897 10896 10897 10896 10896 10896 10896 10895 10895 10895 10895 10895 10894 10895 10895 10895 10894 10893 10892 10890 10888 10888 10887 10886 10885 10884 10883 10881 10879 10878 10876 10874 10873 10872 10870 10869 10867 10865 10863 10860 10857 10855 10853 10850 10848 10845 10843 10840 10837 10835 10832 10830 10828 10824 10821 10818 10816 10814 10812 10810 10807 10805 10803 10802 10800 10799 10797 10795 10793 10792 10790 10790 10789 10788 10787 10786 10784 10782 10781 10779
10894 10894 10894 10893 10893 10893 10893 10893 10893 10892 10892 10891 10891 10891 10890 10890 10890 10890 10891 10891 10890 10889 10888 10887 10885 10884 10884 10883 10882 10881 10880 10878 10877 10875 10874 10872 10870 10868 10867 10865 10864 10862 10861 10858 10856 10853 10850 10848 10846 10843 10841 10839 10836 10833 10831 10828 10826 10824 10821 10818 10815 10812 10810 10808 10806 10804 10802 10800 10798 10797 10796 10794 10792 10791 10789 10788 10787 10786 10785 10784 10783 10782 10780 10778 10777
10890 10890 10890 10889 10889 10889 10889 10889 10888 10888 10888 10887 10887 10886 10886 10886 10885 10886 10886 10886 10885 10883 10883 10882 10881 10880 10879 10878 10877 10876 10875 10874 10872 10871 10869 10867 10865 10863 10862 10860 10858 10857 10856 10854 10851 10849 10846 10844 10841 10839 10837 10835 10832 10829 10827 10824 10822 10819 10817 10814 10811 10808 10806 10804 10802 10801 10799 10797 10795 10794 10793 10791 10790 10788 10787 10786 10785 10784 10783 10781 10780 10779 10777 10776 10774
10886 10886 10885 10885 10885 10885 10885 10884 10884 10884 10883 10883 10882 10882 10881 10881 10881 10881 10882 10881 10879 10878 10878 10877 10877 10876 10875 10873 10872 10871 10871 10869 10867 10866 10864 10862 10860 10858 10857 10855 10853 10852 10851 10849 10847 10845 10842 10839 10837 10835 10832 10830 10828 10826 10823 10820 10818 10815 10813 10810 10808 10805 10803 10801 10799 10797 10796 10794 10792 10791 10790 10789 10787 10786 10785 10784 10783 10782 10780 10779 10777 10776 10774 10773 10771
10882 10882 10881 10881 10881 10880 10880 10880 10880 10879 10879 10878 10878 10877 10877 10877 10877 10877 10877 10876 10874 10873 10872 10872 10872 10872 10870 10868 10867 10867 10866 10865 10863 10861 10859 10858 10856 10853 10852 10850 10848 10846 10845 10844 10843 10841 10837 10835 10833 10831 10828 10826 10824 10822 10819 10816 10814 10811 10809 10806 10804 10802 10799 10797 10796 10794 10793 10791 10790 10788 10787 10786 10785 10784 10783 10782 10781 10780 10778 10777 10775 10773 10771 10770 10768
10877 10877 10877 10877 10877 10876 10876 10875 10875 10874 10874 10874 10873 10872 10872 10872 10872 10872 10872 10870 10869 10868 10868 10867 10868 10867 10866 10864 10863 10862 10862 10860 10858 10857 10855 10853 10851 10849 10846 10845 10843 10841 10840 10840 10839 10836 10833 10830 10828 10827 10825 10822 10819 10817 10815 10812 10809 10807 10805 10803 10801 10798 10796 10794 10792 10791 10790 10788 10787 10786 10785 10784 10783 10782 10781 10780 10779 10778 10776 10775 10773 10771 10769 10768 10766
10873 10873 10873 10873 10872 10872 10871 10871 10870 10870 10869 10869 10868 10867 10867 10868 10868 10867 10866 10865 10864 10863 10863 10863 10863 10863 10862 10860 10859 10858 10857 10855 10854 10852 10850 10848 10846 10844 10842 10840 10838 10836 10835 10835 10834 10832 10829 10826 10824 10823 10821 10818 10815 10813 10810 10808 10806 10803 10801 10799 10797 10795 10793 10791 10789 10788 10787 10785 10784 10783 10782 10781 10780 10780 10779 10778 10777 10775 10774 10772 10771 10769 10767 10766 10765
10868 10868 10868 10867 10867 10867 10867 10866 10866 10865 10864 10864 10863 10862 10863 10863 10863 10862 10861 10860 10859 10859 10858 10858 10859 10858 10857 10856 10855 10854 10852 10851 10849 10848 10846 10844 10842 10840 10837 10835 10833 10832 10831 10830 10830 10828 10825 10822 10819 10818 10816 10814 10811 10808 10806 10804 10802 10800 10797 10795 10793 10791 10790 10788 10787 10785 10784 10782 10781 10781 10780 10779 10778 10777 10776 10775 10774 10773 10771 10770 10768 10767 10765 10764 10763
10863 10863 10863 10862 10862 10862 10861 10861 10861 10860 10859 10858 10858 10857 10858 10858 10858 10856 10856 10855 10855 10854 10854 10854 10854 10853 10852 10852 10850 10849 10848 10846 10845 10844 10841 10839 10837 10835 10833 10830 10829 10827 10826 10825 10825 10823 10821 10818 10815 10813 10812 10810 10806 10804 10802 10800 10798 10796 10794 10792 10790 10788 10787 10785 10784 10782 10781 10780 10779 10778 10777 10777 10776 10775 10774 10772 10771 10770 10769 10767 10766 10764 10763 10762 10761
10857 10857 10857 10856 10856 10856 10855 10856 10856 10855 10854 10854 10853 10852 10852 10852 10852 10851 10851 10850 10850 10850 10850 10849 10849 10848 10847 10847 10846 10844 10843 10842 10841 10839 10837 10835 10833 10831 10829 10826 10824 10822 10821 10820 10820 10819 10817 10814 10811 10809 10807 10805 10803 10800 10798 10796 10795 10793 10790 10788 10786 10785 10784 10783 10781 10779 10778 10777 10776 10775 10775 10774 10773 10772 10771 10770 10768 10767 10766 10765 10763 10762 10761 10760 10759
10852 10852 10851 10850 10850 10850 10850 10850 10850 10850 10849 10849 10848 10847 10847 10847 10846 10846 10846 10846 10846 10846 10845 10844 10844 10844 10843 10842 10841 10840 10839 10838 10837 10834 10832 10830 10828 10826 10824 10822 10819 10818 10816 10815 10815 10815 10813 10810 10807 10805 10802 10801 10799 10796 10794 10793 10791 10789 10787 10785 10783 10782 10781 10780 10778 10776 10775 10774 10773 10773 10772 10771 10770 10769 10768 10767 10765 10764 10763 10762 10760 10759 10758 10757 10756
10847 10846 10845 10844 10844 10844 10845 10845 10845 10844 10844 10844 10843 10843 10842 10842 10841 10841 10841 10841 10841 10841 10840 10839 10839 10839 10839 10838 10837 10836 10835 10834 10833 10830 10827 10825 10823 10821 10820 10818 10815 10813 10812 10811 10811 10810 10809 10806 10804 10801 10798 10796 10795 10793 10791 10789 10788 10785 10783 10782 10780 10779 10778 10777 10775 10774 10773 10772 10771 10770 10769 10768 10767 10766 10765 10764 10762 10761 10760 10759 10758 10757 10756 10755 10754
10841 10840 10839 10838 10839 10839 10839 10839 10839 10839 10838 10838 10838 10838 10838 10838 10838 10837 10837 10837 10837 10836 10836 10835 10835 10834 10834 10833 10833 10832 10831 10830 10828 10826 10823 10821 10818 10816 10815 10814 10812 10809 10808 10806 10806 10806 10805 10802 10800 10797 10795 10792 10790 10789 10788 10786 10784 10782 10780 10778 10777 10776 10775 10774 10773 10772 10770 10769 10768 10767 10767 10766 10765 10764 10762 10761 10760 10759 10757 10756 10755 10754 10753 10752 10751
10833 10833 10833 10832 10833 10833 10833 10834 10834 10833 10833 10833 10833 10833 10834 10834 10834 10833 10833 10833 10833 10832 10832 10831 10831 10830 10829 10829 10828 10828 10827 10826 10824 10822 10819 10817 10814 10812 10811 10810 10808 10805 10803 10802 10801 10801 10800 10799 10797 10794 10791 10789 10787 10785 10784 10783 10781 10779 10777 10775 10774 10773 10772 10771 10770 10769 10768 10767 10766 10765 10764 10763 10762 10761 10760 10758 10757 10756 10755 10754 10752 10751 10750 10749 10748
10826 10826 10826 10826 10826 10827 10828 10828 10828 10828 10828 10827 10828 10828 10829 10829 10830 10829 10829 10829 10828 10828 10828 10827 10827 10826 10826 10825 10824 10823 10823 10822 10820 10818 10816 10814 10811 10809 10807 10805 10803 10801 10799 10797 10796 10795 10795 10795 10793 10791 10788 10786 10784 10782 10781 10780 10778 10776 10774 10773 10772 10770 10769 10768 10767 10766 10765 10764 10763 10762 10761 10760 10759 10758 10757 10756 10755 10753 10752 10751 10750 10748 10748 10747 10746
10819 10819 10819 10820 10820 10821 10822 10823 10822 10822 10823 10822 10823 10824 10824 10825 10825 10825 10825 10824 10824 10824 10824 10824 10823 10822 10822 10821 10820 10819 10818 10818 10816 10815 10812 10811 10808 10805 10803 10801 10799 10797 10796 10794 10792 10790 10789 10790 10790 10788 10785 10783 10781 10779 10778 10776 10775 10773 10771 10770 10769 10768 10766 10765 10764 10763 10762 10761 10760 10759 10759 10758 10757 10756 10754 10753 10752 10751 10750 10748 10747 10746 10745 10744 10744
10811 10812 10813 10815 10815 10815 10816 10817 10817 10817 10818 10818 10818 10819 10820 10820 10820 10820 10820 10820 10820 10820 10820 10820 10819 10818 10818 10817 10816 10815 10814 10814 10812 10811 10809 10808 10805 10802 10799 10796 10795 10793 10792 10790 10787 10785 10784 10785 10786 10784 10782 10780 10778 10776 10774 10773 10771 10770 10769 10768 10766 10765 10764 10763 10761 10760 10759 10758 10758 10757 10756 10755 10754 10753 10752 10751 10749 10748 10747 10745 10744 10743 10742 10742 10741
10805 10806 10808 10809 10809 10810 10811 10811 10812 10813 10814 10814 10814 10815 10815 10816 10816 10816 10815 10815 10816 10816 10816 10815 10814 10814 10813 10812 10812 10811 10810 10810 10809 10808 10806 10804 10802 10799 10796 10793 10791 10789 10787 10786 10783 10781 10780 10780 10781 10781 10780 10778 10776 10773 10771 10770 10768 10767 10767 10765 10763 10762 10761 10760 10759 10758 10757 10756 10755 10754 10753 10752 10751 10750 10749 10748 10747 10745 10744 10743 10742 10741 10740 10739 10738
10799 10801 10803 10804 10804 10805 10806 10806 10808 10809 10809 10809 10810 10810 10811 10811 10811 10811 10811 10811 10812 10812 10812 10811 10810 10809 10808 10807 10807 10806 10806 10805 10804 10804 10803 10801 10799 10796 10793 10789 10787 10785 10783 10781 10779 10777 10776 10775 10776 10777 10777 10775 10773 10771 10769 10767 10766 10764 10764 10763 10761 10759 10758 10757 10756 10755 10754 10753 10752 10751 10750 10749 10748 10747 10746 10745 10744 10743 10741 10740 10739 10738 10737 10736 10736
10794 10796 10798 10798 10799 10800 10801 10802 10804 10804 10805 10805 10805 10805 10806 10806 10806 10807 10807 10808 10809 10808 10808 10807 10805 10804 10804 10802 10802 10801 10801 10800 10800 10800 10799 10797 10795 10792 10789 10786 10784 10782 10780 10778 10775 10773 10772 10771 10771 10772 10773 10772 10770 10768 10766 10765 10763 10762 10761 10759 10758 10756 10755 10754 10753 10752 10751 10750 10749 10748 10747 10746 10745 10744 10743 10742 10741 10740 10739 10738 10737 10736 10735 10734 10734
10789 10791 10792 10793 10794 10796 10797 10798 10800 10800 10800 10800 10800 10800 10801 10802 10803 10804 10804 10805 10805 10804 10804 10803 10801 10800 10799 10797 10797 10796 10795 10795 10795 10795 10795 10793 10791 10788 10785 10783 10781 10779 10777 10774 10772 10770 10769 10768 10767 10767 10768 10769 10768 10766 10764 10763 10761 10759 10758 10756 10754 10753 10752 10751 10750 10749 10748 10747 10746 10745 10744 10743 10742 10741 10740 10740 10739 10738 10736 10735 10734 10733 10732 10732 10731
10783 10785 10786 10788 10789 10791 10792 10795 10796 10795 10795 10795 10795 10796 10797 10798 10799 10800 10801 10801 10802 10801 10800 10799 10797 10796 10794 10793 10792 10791 10791 10791 10791 10791 10790 10788 10786 10784 10781 10779 10777 10775 10773 10771 10769 10767 10766 10765 10763 10763 10764 10764 10764 10763 10762 10760 10758 10756 10755 10753 10751 10750 10749 10748 10747 10746 10745 10744 10743 10742 10742 10741 10740 10739 10738 10737 10736 10735 10734 10733 10732 10731 10730 10729 10729
10777 10779 10781 10782 10784 10786 10788 10791 10791 10789 10790 10790 10790 10791 10793 10794 10795 10796 10797 10797 10799 10798 10797 10797 10795 10792 10790 10788 10787 10787 10787 10787 10787 10787 10786 10784 10782 10780 10778 10776 10774 10772 10770 10768 10766 10764 10763 10761 10760 10759 10760 10760 10760 10760 10759 10758 10756 10754 10751 10750 10748 10747 10746 10746 10745 10744 10743 10742 10741 10740 10739 10738 10737 10736 10735 10734 10733 10732 10731 10730 10729 10728 10728 10728 10727
10772 10774 10775 10777 10779 10781 10783 10786 10785 10783 10784 10785 10785 10787 10788 10790 10791 10792 10792 10793 10796 10795 10794 10793 10792 10789 10786 10784 10784 10783 10783 10783 10783 10782 10782 10780 10779 10777 10775 10773 10771 10769 10767 10765 10763 10761 10760 10758 10757 10756 10756 10756 10756 10757 10756 10755 10753 10751 10749 10747 10746 10745 10744 10743 10742 10742 10741 10740 10738 10737 10736 10735 10734 10733 10732 10731 10731 10730 10729 10728 10727 10726 10726 10726 10725
10769 10770 10771 10773 10774 10775 10777 10781 10780 10778 10778 10779 10781 10782 10783 10785 10785 10787 10788 10789 10792 10792 10790 10788 10785 10784 10783 10781 10780 10779 10779 10779 10778 10778 10777 10776 10775 10773 10772 10770 10768 10766 10765 10763 10761 10759 10757 10755 10754 10753 10753 10753 10753 10752 10752 10751 10749 10748 10746 10745 10743 10743 10742 10741 10740 10740 10739 10737 10736 10735 10734 10732 10731 10729 10729 10728 10728 10727 10727 10726 10725 10724 10724 10724 10724
10765 10766 10767 10769 10770 10770 10772 10776 10775 10772 10772 10774 10776 10777 10778 10779 10780 10782 10783 10785 10788 10790 10788 10784 10780 10780 10779 10777 10776 10775 10775 10775 10774 10774 10773 10772 10771 10770 10768 10766 10765 10764 10762 10760 10759 10756 10754 10753 10751 10750 10750 10749 10749 10748 10748 10748 10747 10745 10744 10743 10742 10741 10740 10739 10738 10737 10736 10735 10733 10732 10730 10729 10727 10726 10725 10725 10725 10725 10724 10724 10723 10722 10722 10722 10722
10761 10762 10764 10766 10766 10766 10767 10770 10769 10767 10768 10769 10770 10771 10772 10774 10776 10777 10779 10781 10785 10788 10787 10782 10777 10777 10776 10774 10773 10772 10771 10771 10770 10770 10769 10768 10767 10766 10765 10764 10762 10761 10759 10758 10756 10754 10752 10750 10749 10748 10747 10747 10746 10745 10745 10745 10744 10743 10741 10740 10740 10739 10738 10737 10736 10735 10734 10732 10731 10729 10727 10725 10723 10722 10722 10721 10721 10722 10722 10721 10721 10721 10721 10721 10720
10757 10760 10762 10763 10763 10762 10762 10763 10763 10762 10762 10763 10765 10766 10767 10769 10770 10772 10774 10777 10782 10785 10784 10779 10775 10774 10773 10771 10770 10769 10768 10767 10766 10766 10765 10764 10763 10762 10762 10761 10760 10758 10757 10755 10754 10752 10750 10748 10747 10745 10744 10744 10743 10742 10742 10742 10742 10741 10739 10738 10738 10737 10736 10734 10733 10733 10732 10730 10728 10726 10724 10722 10720 10719 10718 10718 10718 10719 10719 10719 10719 10719 10719 10719 10719
10755 10759 10761 10761 10760 10758 10757 10759 10759 10758 10758 10759 10761 10762 10762 10763 10764 10767 10769 10773 10778 10782 10779 10776 10773 10771 10770 10768 10766 10765 10764 10763 10763 10762 10761 10760 10760 10759 10758 10758 10757 10756 10754 10753 10751 10750 10748 10746 10745 10743 10742 10741 10740 10739 10739 10739 10739 10738 10737 10736 10735 10734 10733 10732 10731 10731 10730 10729 10727 10724 10721 10719 10717 10716 10715 10715 10716 10717 10717 10717 10718 10718 10718 10718 10717
10750 10753 10756 10758 10759 10756 10754 10756 10756 10757 10757 10756 10757 10758 10758 10759 10760 10762 10765 10767 10772 10775 10773 10771 10769 10767 10766 10764 10763 10762 10760 10759 10758 10757 10757 10756 10756 10755 10755 10754 10754 10753 10752 10750 10749 10748 10746 10744 10743 10741 10739 10738 10737 10736 10736 10736 10736 10736 10735 10734 10733 10732 10731 10730 10730 10729 10729 10727 10725 10722 10719 10716 10714 10713 10713 10714 10715 10715 10716 10716 10716 10716 10716 10716 10716
10744 10745 10748 10753 10758 10756 10752 10753 10754 10756 10758 10756 10755 10755 10754 10755 10757 10759 10762 10763 10765 10767 10766 10765 10763 10762 10761 10760 10759 10758 10756 10755 10754 10753 10753 10752 10752 10751 10751 10751 10750 10750 10749 10748 10747 10746 10744 10742 10741 10739 10737 10736 10735 10734 10733 10733 10734 10733 10733 10731 10730 10730 10729 10729 10729 10729 10728 10726 10724 10720 10716 10713 10712 10712 10712 10713 10714 10714 10715 10715 10715 10715 10715 10715 10714
10739 10737 10741 10747 10752 10752 10750 10751 10752 10754 10757 10755 10752 10751 10751 10752 10754 10756 10758 10759 10759 10760 10760 10759 10758 10757 10757 10756 10755 10753 10752 10751 10750 10749 10748 10748 10748 10748 10748 10747 10747 10746 10745 10745 10744 10743 10742 10740 10739 10737 10736 10734 10732 10731 10731 10731 10732 10731 10730 10729 10729 10729 10728 10729 10729 10729 10727 10724 10723 10719 10714 10712 10712 10711 10712 10712 10713 10713 10713 10713 10713 10714 10714 10713 10713
10733 10732 10735 10740 10743 10747 10748 10749 10751 10752 10752 10751 10749 10748 10748 10749 10751 10752 10753 10754 10754 10754 10754 10754 10753 10753 10752 10751 10750 10749 10748 10747 10746 10745 10744 10744 10744 10744 10744 10743 10743 10742 10742 10741 10741 10740 10739 10738 10736 10735 10733 10732 10731 10730 10729 10729 10729 10729 10728 10727 10727 10728 10728 10728 10728 10729 10728 10724 10722 10719 10713 10711 10712 10712 10712 10711 10712 10712 10712 10712 10712 10712 10712 10712 10712
10728 10729 10731 10734 10737 10741 10745 10748 10751 10751 10749 10747 10745 10745 10745 10746 10746 10747 10747 10747 10748 10748 10748 10748 10748 10748 10747 10747 10746 10745 10744 10743 10741 10740 10739 10740 10740 10740 10740 10739 10739 10738 10738 10738 10737 10737 10736 10735 10734 10732 10731 10730 10729 10728 10728 10727 10727 10726 10726 10726 10726 10727 10727 10728 10728 10731 10729 10723 10721 10718 10712 10710 10712 10713 10712 10711 10711 10711 10711 10711 10711 10711 10711 10711 10711
10725 10725 10726 10729 10732 10736 10742 10747 10749 10748 10746 10744 10743 10742 10742 10742 10742 10741 10742 10742 10742 10742 10742 10743 10743 10743 10742 10742 10741 10740 10740 10739 10737 10736 10735 10735 10736 10736 10735 10735 10735 10735 10734 10734 10733 10733 10733 10732 10731 10730 10729 10727 10727 10727 10726 10725 10724 10724 10724 10724 10725 10725 10726 10727 10729 10730 10725 10719 10718 10717 10714 10711 10712 10714 10713 10712 10711 10710 10710 10710 10710 10710 10711 10711 10711
10720 10721 10724 10725 10729 10735 10742 10746 10745 10743 10742 10742 10740 10740 10739 10739 10738 10738 10738 10738 10738 10737 10737 10738 10738 10738 10737 10737 10736 10736 10736 10735 10733 10732 10731 10731 10731 10731 10731 10731 10731 10731 10731 10730 10730 10730 10729 10729 10728 10727 10726 10725 10725 10725 10724 10723 10723 10722 10722 10723 10724 10724 10725 10726 10729 10726 10718 10717 10718 10716 10715 10714 10714 10715 10714 10713 10712 10710 10710 10710 10710 10710 10710 10710 10710
10716 10717 10720 10722 10727 10735 10741 10743 10740 10738 10738 10738 10737 10737 10736 10736 10736 10736 10736 10735 10733 10732 10733 10733 10733 10733 10732 10732 10732 10732 10731 10731 10729 10728 10728 10727 10727 10727 10727 10727 10727 10727 10727 10727 10727 10727 10726 10726 10724 10724 10723 10723 10723 10722 10722 10721 10721 10721 10721 10722 10722 10723 10724 10724 10727 10722 10715 10717 10718 10716 10715 10714 10714 10715 10715 10715 10713 10710 10710 10710 10709 10709 10709 10709 10709
10710 10712 10715 10719 10726 10733 10736 10735 10732 10731 10732 10733 10734 10734 10734 10735 10735 10734 10734 10731 10729 10728 10728 10728 10728 10728 10727 10727 10727 10727 10727 10726 10726 10725 10724 10724 10723 10723 10723 10723 10724 10724 10724 10724 10724 10724 10723 10722 10722 10721 10720 10720 10720 10720 10719 10719 10719 10719 10719 10720 10721 10721 10722 10723 10724 10719 10715 10718 10717 10715 10714 10713 10713 10714 10714 10715 10713 10711 10710 10710 10709 10709 10709 10708 10707
10705 10707 10710 10717 10724 10726 10725 10724 10725 10727 10728 10729 10732 10733 10732 10733 10733 10733 10732 10729 10725 10725 10725 10724 10723 10723 10722 10722 10722 10722 10723 10722 10722 10721 10721 10720 10720 10720 10719 10720 10720 10720 10720 10720 10720 10720 10720 10719 10718 10718 10718 10717 10717 10717 10717 10716 10717 10717 10718 10718 10719 10720 10720 10721 10722 10718 10715 10717 10716 10714 10713 10713 10713 10713 10714 10715 10714 10711 10710 10709 10708 10707 10707 10706 10705
10701 10703 10707 10715 10719 10716 10715 10717 10720 10723 10724 10726 10729 10729 10729 10730 10731 10732 10732 10728 10723 10721 10721 10720 10719 10718 10717 10717 10717 10718 10718 10718 10718 10717 10717 10717 10716 10716 10716 10716 10717 10717 10717 10717 10717 10717 10717 10716 10715 10715 10715 10715 10715 10714 10714 10714 10714 10715 10716 10716 10717 10718 10718 10719 10720 10718 10716 10715 10714 10713 10713 10712 10712 10712 10713 10714 10713 10712 10711 10709 10707 10706 10705 10704 10703
10696 10698 10703 10710 10711 10709 10710 10714 10716 10718 10720 10723 10723 10723 10724 10727 10728 10729 10728 10725 10720 10718 10717 10715 10714 10713 10712 10713 10713 10714 10714 10714 10714 10714 10713 10713 10713 10713 10713 10713 10713 10713 10714 10714 10714 10714 10713 10713 10712 10712 10712 10712 10712 10712 10712 10712 10712 10713 10714 10715 10716 10716 10716 10717 10717 10717 10715 10714 10713 10712 10711 10710 10710 10711 10711 10711 10711 10710 10709 10708 10706 10704 10703 10702 10701
10692 10695 10699 10703 10705 10704 10705 10708 10712 10714 10716 10717 10718 10719 10721 10723 10724 10723 10723 10721 10717 10714 10713 10711 10709 10709 10708 10709 10709 10709 10710 10710 10710 10710 10710 10710 10710 10710 10710 10710 10710 10710 10710 10711 10711 10711 10710 10710 10709 10709 10709 10709 10709 10709 10709 10709 10710 10711 10712 10713 10714 10714 10714 10715 10715 10715 10714 10712 10712 10711 10710 10708 10709 10709 10709 10708 10707 10707 10706 10705 10704 10702 10700 10699 10699
10688 10691 10695 10697 10698 10698 10699 10705 10709 10710 10711 10713 10713 10714 10717 10719 10719 10719 10719 10717 10714 10710 10708 10706 10705 10705 10705 10705 10705 10705 10706 10706 10707 10707 10707 10707 10707 10707 10707 10707 10707 10707 10707 10708 10708 10708 10707 10707 10706 10706 10706 10706 10707 10707 10707 10707 10707 10708 10709 10710 10711 10711 10711 10712 10713 10713 10712 10710 10710 10709 10707 10706 10706 10707 10706 10705 10704 10703 10702 10700 10700 10698 10697 10696 10695
10683 10686 10690 10692 10692 10693 10698 10703 10705 10705 10706 10707 10708 10710 10713 10715 10717 10717 10714 10714 10712 10707 10703 10702 10701 10701 10701 10701 10701 10701 10702 10702 10703 10703 10703 10703 10703 10703 10704 10704 10704 10704 10704 10704 10704 10704 10704 10703 10703 10703 10703 10704 10704 10704 10704 10705 10705 10706 10707 10707 10708 10709 10709 10710 10710 10710 10709 10707 10707 10706 10703 10703 10704 10703 10703 10701 10700 10699 10698 10696 10695 10694 10693 10692 10692
10679 10681 10684 10686 10687 10692 10696 10699 10699 10701 10701 10702 10705 10707 10709 10710 10713 10713 10710 10709 10707 10702 10699 10698 10697 10698 10697 10697 10698 10698 10698 10698 10698 10699 10699 10699 10699 10700 10700 10701 10701 10701 10701 10701 10701 10701 10701 10700 10700 10700 10700 10700 10701 10701 10702 10702 10702 10703 10704 10704 10706 10706 10706 10707 10707 10706 10705 10704 10704 10701 10700 10700 10700 10699 10699 10697 10696 10695 10694 10693 10692 10691 10690 10689 10688
10674 10677 10681 10682 10685 10690 10694 10695 10695 10696 10698 10699 10701 10704 10706 10706 10707 10708 10707 10706 10702 10698 10696 10695 10695 10694 10693 10693 10694 10693 10694 10694 10695 10695 10695 10696 10696 10696 10697 10697 10698 10698 10698 10698 10698 10698 10697 10697 10697 10697 10697 10697 10698 10698 10699 10699 10700 10700 10701 10701 10703 10704 10703 10703 10704 10703 10702 10701 10700 10698 10697 10697 10696 10695 10694 10693 10692 10691 10690 10689 10688 10687 10686 10685 10684
10670 10673 10676 10679 10684 10690 10691 10691 10692 10693 10693 10695 10697 10700 10703 10703 10703 10704 10704 10703 10699 10695 10693 10692 10692 10691 10689 10690 10690 10690 10690 10690 10691 10691 10691 10692 10693 10693 10694 10694 10694 10695 10695 10695 10695 10695 10694 10694 10694 10694 10694 10694 10694 10695 10696 10696 10697 10697 10697 10698 10699 10700 10700 10700 10701 10700 10699 10698 10696 10694 10694 10693 10692 10691 10690 10689 10688 10687 10686 10685 10684 10684 10683 10681 10680
10664 10668 10674 10680 10686 10691 10690 10689 10689 10686 10686 10688 10692 10695 10697 10698 10699 10701 10700 10698 10695 10691 10689 10689 10688 10687 10686 10686 10686 10686 10686 10686 10687 10687 10688 10688 10689 10690 10690 10691 10691 10691 10692 10692 10692 10691 10691 10691 10691 10691 10691 10691 10691 10692 10692 10693 10694 10694 10694 10694 10695 10695 10696 10696 10696 10696 10695 10694 10693 10691 10691 10690 10689 10688 10687 10685 10684 10683 10682 10681 10681 10680 10678 10677 10676
10659 10666 10675 10681 10686 10690 10691 10688 10682 10679 10680 10683 10687 10690 10691 10692 10693 10695 10694 10691 10689 10686 10685 10685 10684 10682 10682 10682 10682 10682 10682 10683 10683 10684 10684 10685 10685 10686 10687 10687 10688 10688 10688 10688 10688 10688 10688 10688 10688 10688 10688 10688 10688 10688 10689 10690 10691 10691 10692 10691 10691 10691 10692 10691 10691 10692 10692 10691 10689 10688 10687 10686 10685 10684 10683 10682 10681 10680 10679 10678 10677 10676 10675 10673 10672
10660 10670 10676 10680 10683 10685 10685 10679 10671 10671 10676 10679 10682 10685 10686 10686 10687 10688 10686 10683 10681 10681 10680 10680 10679 10678 10678 10678 10679 10679 10679 10679 10679 10680 10680 10681 10682 10682 10683 10684 10685 10685 10685 10685 10685 10685 10685 10685 10685 10685 10685 10685 10685 10685 10686 10687 10688 10689 10689 10689 10688 10688 10687 10687 10687 10687 10687 10687 10685 10684 10683 10682 10681 10680 10679 10678 10677 10676 10675 10674 10673 10672 10670 10669 10668
10662 10669 10670 10670 10671 10669 10669 10666 10661 10664 10671 10677 10680 10680 10680 10681 10682 10682 10679 10676 10675 10675 10675 10675 10674 10674 10674 10675 10675 10675 10675 10675 10675 10675 10676 10676 10677 10678 10680 10681 10681 10682 10681 10681 10681 10682 10682 10682 10682 10683 10683 10682 10682 10682 10683 10684 10685 10686 10686 10686 10685 10684 10684 10683 10683 10683 10683 10682 10681 10680 10679 10678 10677 10676 10675 10674 10673 10672 10671 10670 10669 10668 10667 10665 10664